Regional Weather Roundup
Issued by NWS

Home | Current Version | Previous Version | Graphics & Text | Print | Product List | Glossary On
Versions: 1 2 3 4 5 6 7 8 9 10 11 12 13 14 15 16 17 18 19 20 21 22 23 24 25 26 27 28 29 30 31 32 33 34 35 36 37 38 39 40 41 42 43 44 45 46 47 48 49 50
000
ASUS45 KTFX 250710
RWRMT
MONTANA REGIONAL WEATHER ROUNDUP
NATIONAL WEATHER SERVICE GREAT FALLS MT
100 AM MDT MON MAY 25 2015

NOTE: "FAIR" INDICATES FEW OR NO CLOUDS BELOW 12000 FEET WITH NO
SIGNIFICANT WEATHER AND/OR OBSTRUCTIONS TO VISIBILITY.

MTZ001>007-043-250800-
WEST OF THE DIVIDE

CITY           SKY/WX    TMP DP  RH WIND       PRES   REMARKS
KALISPELL      MOSUNNY   46  38  73 CALM      29.88S
MISSOULA       MOCLDY    52  39  61 SE7       29.92S
BUTTE          PTCLDY    45  41  86 W3        29.99F
MULLAN PASS    CLOUDY    48  37  65 NW5       29.97F
DEER LODGE       N/A     45  39  81 CALM      30.00F
EUREKA           N/A     57  36  44 SE5       29.86F
HAMILTON         N/A     48  39  71 S6        29.92S
LIBBY            N/A     54  39  58 CALM      29.86S
RONAN            N/A     49  41  74 CALM      29.95S
THOMPSON FALLS   N/A     50  45  83 CALM      29.93S
$$

MTZ008-052>055-250800-
SOUTHWEST MONTANA

CITY           SKY/WX    TMP DP  RH WIND       PRES   REMARKS
BOZEMAN        FOG       43  42  97 S3        29.97S VSB 1/2
DILLON         CLEAR     45  40  82 E8        29.97S
W YELLOWSTONE  CLOUDY    43  39  87 NE3       30.00S
THREE FORKS      N/A     48  28  46 CALM      29.97S
$$

MTZ009-010-012-014-046-048-049-054-250800-
EAST SLOPES AND CENTRAL MONTANA

CITY           SKY/WX    TMP DP  RH WIND       PRES   REMARKS
CUT BANK       CLEAR     47  39  74 W5        29.95S
GREAT FALLS    CLEAR     48  42  80 CALM      29.94F
MALMSTROM AFB  PTCLDY    46  44  93 S7        29.94F
HELENA         CLEAR     48  44  86 W3        29.95S
CONRAD           N/A     42  42 100 CALM      29.97F
$$

MTZ011-013-016-021-045-047-050-051-250800-
NORTH CENTRAL MONTANA

CITY           SKY/WX    TMP DP  RH WIND       PRES   REMARKS
HAVRE          PTCLDY    53  44  71 S3        29.92S
LEWISTOWN      PTCLDY    48  44  86 CALM      29.96F
N BAR RANCH    FAIR      48  43  81 CALM      29.98S
CHINOOK          N/A     48  45  87 CALM      29.92F
FORT BENTON      N/A     50  45  81 CALM      29.94F
$$

MTZ017>020-022>027-061-062-250800-
NORTHEAST MONTANA

CITY           SKY/WX    TMP DP  RH WIND       PRES   REMARKS
GLASGOW        PTCLDY    54  43  66 SE5       29.90F
JORDAN           N/A     48  45  89 CALM      29.90F
SIDNEY         MOCLDY    52  46  82 CALM      29.89F
WOLF POINT     MOCLDY    49  43  80 CALM      29.90F
MALTA            N/A     49  40  71 CALM      29.88F
POPLAR           N/A     54  48  82 N3        29.90F
SCOBEY           N/A     49  32  52 CALM      29.91F
$$

MTZ028>42-056>058-250800-
SOUTHCENTRAL AND SOUTHEAST MONTANA

CITY           SKY/WX    TMP DP  RH WIND       PRES   REMARKS
BAKER          CLOUDY    52  51  97 N5        29.91S
BILLINGS       MOCLDY    51  46  83 W5        29.93S
LIVINGSTON     PTCLDY    46  43  89 CALM      29.97S
MILES CITY     CLOUDY    52  51  97 W5        29.90S
BIG TIMBER       N/A     46  45  93 S6        29.98S
EKALAKA          N/A     51  49  93 N2        29.90F VSB 0
FORSYTH          N/A     55  54  94 CALM      29.91S
LAUREL           N/A     50  43  77 CALM      29.93S
ROUNDUP          N/A     50  43  77 CALM      29.86S
$$

REGIONAL REPORTS...DAKOTAS

CITY           SKY/WX    TMP DP  RH WIND       PRES   REMARKS
WILLISTON      MOCLDY    49  44  83 N5        29.89F
MINOT          CLOUDY    56  48  74 CALM      29.88F
DICKINSON      CLOUDY    55  48  77 NE5       29.86F
BEACH          CLOUDY    48  48 100 NW3       29.91S FOG
CROSBY         FAIR      50  50 100 S6        29.91F
WATFORD CITY   FAIR      46  45  93 CALM      29.88F
BISMARCK       LGT RAIN  56  54  93 NE5       29.88F
GRAND FORKS    MOCLDY    58  52  80 N3        29.83F
FARGO          LGT RAIN  60  56  86 NE5       29.83F
BUFFALO SD       N/A     53  50  89 NE7       29.81S
RAPID CITY     CLOUDY    52  51  97 N8        29.85F
$$

REGIONAL REPORTS...WYOMING/IDAHO/WASHINGTON

CITY           SKY/WX    TMP DP  RH WIND       PRES   REMARKS
GILLETTE       CLOUDY    49  47  93 N9        29.89F
SHERIDAN       RAIN      48  47  96 CALM      29.93S
BUFFALO WY     LGT RAIN  46  45  96 NW7       29.94S FOG
CODY           CLOUDY    48  41  76 N5        29.96F
YELLOWSTONE LA   N/A     32  30  92 CALM      30.04F
IDAHO FALLS    CLOUDY    53  47  79 SW3       29.92S
SALMON         PTCLDY    50  41  71 CALM      29.92R
BOISE          CLEAR     60  46  59 SE16      29.87S
SPOKANE        CLOUDY    59  47  64 NE8       29.86F
$$

REGIONAL REPORTS...ALBERTA

CITY           SKY/WX    TMP DP  RH WIND       PRES   REMARKS
EDMONTON       CLEAR     55  37  50 SE2       29.87S
CALGARY        PTCLDY    54  37  54 S8        29.92S
LETHBRIDGE     MOCLDY    48  39  71 S5        29.92F
MEDICINE HAT   CLEAR     50  39  66 SE5       29.91F
$$

REGIONAL REPORTS...SASKATCHEWAN

CITY           SKY/WX    TMP DP  RH WIND       PRES   REMARKS
SWIFT CURRENT  MOCLDY    70  30  23 VRB6      29.91F
REGINA         PTCLDY    55  41  58 CALM      29.90S
SASKATOON      PTCLDY    52  39  62 S5        29.89F
$$



USA.gov is the U.S. government's official web portal to all federal, state and local government web resources and services.